Location: Unspecified
(0.0000°N, 0.0000°E)
Time: 20:54:54
(UTC+02:00)

Daily predictions for brighter satellites

Satellite Brightness Start Highest point End
(mag) Time Altitude Azimuth Time Altitude Azimuth Time Altitude Azimuth
Cosmos 2346 Rocket 4.4 20:02:16 10° N 20:08:15 68° E 20:14:18 10° S
Cosmos 1371 Rocket 4.1 20:04:10 10° N 20:09:25 60° ENE 20:14:42 10° SSE
CENTAUR R/B 3.7 20:05:37 10° SW 20:10:55 42° WNW 20:16:25 10° N
Meteor 2-5 Rocket 4.1 20:07:37 10° NNW 20:13:06 70° W 20:18:38 10° S
Cosmos 1544 3.1 20:13:26 10° S 20:17:07 63° E 20:20:48 10° NNE
SeaSat 1 3.8 20:14:39 10° ENE 20:18:01 19° ESE 20:21:23 10° SSE
IDEFIX/ARIANE 42P 2.8 20:14:26 10° S 20:19:38 77° WSW 20:24:51 10° NNW
Okean 3 Rocket 3.6 20:15:36 10° N 20:20:06 81° E 20:24:37 10° S
Abrixas rocket 3.5 20:18:12 10° NW 20:21:22 43° SW 20:24:33 10° SSE
Helios 1B rocket 2.7 20:17:31 10° NNE 20:21:29 48° ESE 20:25:28 10° S
Cosmos 1624 Rocket 3.9 20:20:22 10° N 20:25:31 71° ENE 20:30:42 10° SSE
SJ-6B 4.0 20:22:48 10° SE 20:25:44 21° ENE 20:28:42 10° NNE
XTE 3.1 20:25:40 10° WNW 20:28:42 72° SSW 20:31:26 12° ESE
Cosmos 1484 Rocket 2.7 20:25:43 10° SSE 20:29:25 59° E 20:33:10 10° N
Ariane H10+ 3.4 20:24:00 10° WSW 20:29:53 45° S 20:31:47 14° ESE
Ariane 42L R/B 3.7 20:24:06 10° WNW 20:32:30 40° N 20:34:53 14° ENE
Cosmos-2242 4.1 20:30:49 10° SSW 20:35:00 49° W 20:39:12 10° N
ATLAS CENTAUR R/B 0.9 20:32:39 10° NNW 20:36:18 88° NE 20:39:50 10° SSE
BLOCK DM-SL R/B 4.0 20:33:30 10° W 20:38:15 89° S 20:49:22 17° E
Cosmos 2251 Rocket 3.5 20:34:52 10° S 20:40:02 61° ESE 20:45:10 10° NNE
Cosmos 2221 4.0 20:37:52 10° SE 20:40:13 17° ESE 20:40:13 17° ESE
Cosmos 494 Rocket 4.2 20:37:18 10° S 20:42:19 46° ESE 20:47:17 10° NNE
Cosmos 1437 Rocket 3.9 20:39:34 10° SSE 20:42:51 23° E 20:43:50 21° ENE
ASTEX 1 4.0 20:39:45 10° NE 20:44:02 31° E 20:48:21 10° SSE
ARIANE 44L R/B 2.3 20:43:34 10° W 20:45:45 90° NE 20:48:43 22° E
Cosmos 1076 Rocket 3.4 20:42:12 10° N 20:46:33 80° E 20:50:56 10° S
Meteor 1-21 Rocket 4.4 20:48:35 10° NNE 20:53:49 44° E 20:59:07 10° SSE
Cosmos 1452 Rocket 3.7 20:50:25 10° N 20:55:22 44° ENE 21:00:21 10° SSE
Cosmos 1766 Rocket 3.4 20:51:55 10° N 20:56:13 85° E 21:00:33 10° S
ARIANE 5 R/B 1.6 20:55:48 10° WSW 20:57:40 35° S 20:57:48 34° S
SAR-Lupe-1 3.9 20:54:50 10° SSE 20:58:23 69° ENE 21:01:54 10° N
Atlas Centaur 2 4.0 20:55:21 10° NNW 21:02:23 28° NNE 21:05:10 23° ENE
Cosmos 2278 Rocket 4.5 20:58:31 10° NW 21:03:05 25° WSW 21:07:41 10° SSW
Delta 2 Rocket 4.1 20:57:33 10° WNW 21:03:46 64° SSW 21:07:42 22° SE
Spot 2 Rocket 3.9 21:00:09 10° SE 21:04:50 39° ENE 21:09:29 10° N
Timation 1 Rocket 4.2 21:02:46 10° NNW 21:08:44 82° ENE 21:14:42 10° SSE
ARIANE 42L R/B 2.8 21:09:55 10° WSW 21:14:42 44° S 21:15:01 42° SSE
GPS 2-05 Rocket1 3.6 21:15:04 10° WNW 21:18:18 44° SW 21:18:31 43° SSW
GPS 2-15 Rocket1 3.7 21:21:09 10° SW 21:25:40 44° SSE 21:25:40 44° SSE
FREGAT/IRIS 4.3 21:27:10 32° WNW 21:27:10 32° WNW 21:29:20 10° NNW
Delta 202 4.4 21:18:20 10° WSW 21:27:22 70° NNW 21:29:31 45° NE
COSMOS 2406 3.1 21:21:46 10° SSW 21:27:32 80° ESE 21:29:32 42° NNE
Delta 2 Rocket 4.0 21:23:10 10° SW 21:28:54 70° SE 21:29:25 65° ESE
Spot 1 4.3 21:23:52 10° SSE 21:28:54 86° WSW 21:33:40 10° NNW
Hubble Space Telescope 3.4 21:27:50 10° NW 21:29:39 12° NNW 21:30:42 12° NNW
GOES 2 Rocket 4.3 21:32:55 10° SW 21:38:18 41° S 21:38:18 41° S
ARIANE 5 DEB (SYLDA) 2.6 21:33:57 10° W 21:40:42 84° S 21:40:57 79° SE
SWIFT 4.1 21:37:18 10° NW 21:39:19 25° NNW 21:39:19 25° NNW
Meteor 2-1 Rocket 4.4 21:37:52 10° S 21:43:28 71° W 21:47:34 20° N
BLOCK DM-SL 4.1 21:29:24 10° W 21:45:48 77° N 21:47:09 61° ENE
Cosmos 2279 Rocket 3.9 21:41:46 10° S 21:47:57 80° W 21:50:49 34° N
Resurs 01 Rocket 3.3 21:50:59 27° NW 21:50:59 27° NW 21:53:08 10° NNW
SeaSat 1 4.2 21:51:46 13° NNW 21:55:16 28° WNW 21:59:28 10° SW
CZ-3C R/B 2.7 21:38:16 10° WNW 22:07:22 75° NNE 22:07:22 75° NNE
ARIANE 5 R/B 4.5 13:29:02 10° W 22:40:51 81° SSW 22:40:51 81° SSW
Atlas Centaur 2 4.4 22:44:15 10° NW 22:47:51 28° NW 22:47:51 28° NW
